Dewpoint
11 11 11 12 11 8 4 2 4 3 5 6 5 6 5 7 5 6 10 5 6 7 7 8 8 7 6 6 7 7 7 7 7 6 6 4 3 5 4 4 3 2 1
11 11 10 10 7 4 3 3 3 3 3 7 6 4 4 4 4 4 6 6 6 7 8 9 9 9 8 6 7 8 8 8 8 8 7 6 5 5 5 4 3 3 2
8 4 3 3 3 2 2 2 2 5 9 7 9 7 7 7 6 5 3 6 7 7 8 9 10 9 7 6 6 7 8 8 8 8 8 8 7 5 5 5 4 4 3
3 2 2 2 2 2 1 1 2 7 11 10 10 9 8 6 7 7 7 5 6 7 8 9 9 9 8 7 7 6 6 7 8 7 7 7 8 7 6 5 5 4 3
2 2 2 2 0 1 3 5 6 9 10 10 9 8 8 8 8 7 6 7 7 7 7 9 10 10 9 8 8 8 7 6 7 7 8 7 8 8 7 6 6 4 4
0 1 1 2 4 7 7 8 8 10 11 10 9 8 8 7 6 5 6 6 7 8 8 8 10 10 9 10 9 9 8 7 6 6 7 7 7 9 8 7 6 6 4
4 6 7 9 10 10 10 11 11 11 11 10 9 10 7 7 8 8 9 8 9 8 8 9 10 10 10 10 10 10 9 8 7 7 7 6 6 6 9 8 7 7 5
9 8 8 9 9 9 11 11 11 11 11 9 9 10 11 11 9 8 8 9 10 9 8 9 9 10 10 10 9 10 9 8 7 7 7 6 7 7 6 8 8 8 7
6 8 9 9 9 10 10 10 10 11 10 9 9 10 11 11 11 9 9 9 9 9 9 10 10 9 9 9 10 10 9 9 7 7 7 7 6 6 6 6 6 7 8
8 9 9 9 9 10 10 10 10 10 9 9 10 9 9 10 11 10 10 9 9 10 10 10 10 10 9 10 9 10 9 9 8 7 6 6 5 5 4 3 5 5 6
11 10 10 10 10 10 10 10 9 7 8 9 9 9 10 10 10 10 10 10 10 8 9 9 9 7 7 7 7 8 8 9 8 7 6 5 4 5 3 2 1 3 5
10 11 11 11 11 11 11 10 9 8 8 10 10 10 10 10 9 9 10 9 9 8 8 8 7 7 7 7 7 8 8 9 9 8 6 6 5 5 5 5 5 6 5
10 9 10 10 12 11 9 10 9 9 11 11 11 11 10 9 9 8 9 9 9 9 7 7 7 6 7 6 6 7 8 9 8 8 7 7 5 4 5 6 5 5 3
10 9 9 10 10 10 11 10 10 10 10 10 10 10 10 8 7 9 10 9 9 8 8 5 3 5 6 6 7 7 8 9 8 7 7 6 5 5 5 4 1 1 -1
10 9 8 10 11 11 10 9 8 7 8 8 9 9 7 5 7 4 4 6 8 8 7 7 7 5 7 8 8 8 6 7 7 7 7 6 5 5 4 4 3 1 -0
8 9 11 11 10 8 8 6 6 6 7 7 7 6 7 2 -1 -1 -1 0 1 4 7 6 6 5 7 6 7 8 7 7 7 7 6 6 6 5 4 4 3 4 7
10 10 11 8 7 6 5 5 6 7 7 6 4 -0 -1 -1 -1 -1 -1 -0 1 2 5 5 6 5 7 7 7 7 7 7 7 7 6 6 5 5 3 3 3 2 2
9 9 7 6 6 6 6 5 3 1 -0 -1 -0 -1 -1 -1 -1 -1 -1 -1 -0 0 1 6 5 6 5 6 7 7 7 7 6 5 6 5 5 4 2 3 3 3 3
8 8 6 6 6 6 3 0 -0 -0 -1 -1 -1 -1 -1 -1 -1 -1 -1 -1 -1 -0 2 2 4 5 6 5 6 7 6 6 6 5 4 4 4 3 1 1 2 2 3
8 7 6 6 7 2 0 0 0 -1 -1 -1 -1 -1 -0 -1 -0 -0 -0 -0 -0 -0 0 2 5 5 5 5 5 6 6 6 5 4 3 3 3 2 1 1 1 2 2
7 7 7 7 2 1 1 0 -1 -1 -0 -0 0 0 -0 0 0 0 -0 -0 -1 -1 -0 1 3 4 4 5 5 5 5 4 3 3 3 3 2 1 1 1 0 1 1
7 7 6 2 1 1 0 -0 -0 0 0 1 1 1 1 1 0 -0 -0 -1 -2 -3 -2 1 2 2 3 4 4 4 4 3 3 3 2 2 1 1 1 0 0 0 0
6 4 1 1 1 -0 -0 0 1 1 1 1 1 1 0 -0 -0 -0 -1 -1 -2 -2 -0 0 1 1 2 2 2 3 3 3 3 3 2 2 1 1 0 -0 -1 -2 -3
2 1 1 0 0 0 1 1 1 1 1 0 0 0 -0 -1 -1 -1 -1 -1 -1 -1 -1 -0 0 0 0 1 1 2 2 1 1 1 1 1 1 0 -0 -1 -3 -5 -10
2 1 0 0 1 1 1 1 0 -0 -0 -0 0 -0 -1 -1 -1 -1 -1 -1 -1 -1 -1 -1 -0 -0 -0 0 1 1 1 1 1 1 1 0 -0 -0 -1 -2 -4 -8 -18
1 0 1 1 1 1 1 -0 -1 -1 -1 -0 -0 -0 -0 -1 -1 -1 -1 -1 -1 -1 -1 -1 -1 -0 -0 0 0 0 0 0 0 0 0 -1 -0 -1 -5 -8 -12 -17 -21
Wind_Speed
27 25 24 21 20 19 18 15 13 11 9 8 7 5 4 4 4 3 3 2 2 2 2 2 2 3 5 6 4 4 4 5 5 5 5 5 4 4 6 7 8 10 12
25 24 24 22 21 19 17 14 12 10 9 6 5 4 4 4 5 5 5 5 4 3 2 1 1 2 3 4 4 4 4 4 4 4 4 4 3 3 4 5 6 8 10
27 27 26 24 22 20 16 14 12 10 7 6 4 4 4 5 5 6 7 7 6 5 4 3 4 3 2 4 5 6 5 5 4 3 4 4 4 4 4 4 4 6 8
28 27 25 24 21 18 16 14 12 10 7 5 5 5 5 6 6 8 8 8 8 8 7 6 5 4 3 2 3 6 8 6 5 4 6 7 6 5 5 4 3 4 5
27 25 23 22 20 18 16 13 12 10 8 6 6 6 7 8 9 10 10 11 12 11 10 10 9 7 7 6 6 6 10 11 8 7 9 9 9 8 7 6 6 5 3
27 25 22 21 19 17 14 13 12 10 8 6 6 7 8 8 9 10 12 13 13 12 12 12 11 11 12 11 9 9 8 11 12 11 9 10 11 13 10 9 9 8 7
26 25 21 20 17 14 13 12 11 9 8 6 6 6 7 9 11 12 13 15 14 14 15 14 15 17 18 15 14 13 12 12 13 12 12 11 11 11 15 13 11 11 12
26 23 20 18 17 16 13 11 10 9 9 7 7 7 4 5 8 8 13 14 17 17 17 17 16 18 20 18 19 16 14 13 15 13 11 12 13 13 12 18 17 16 15
24 22 19 17 16 16 15 15 13 12 10 12 13 6 4 4 5 10 11 10 15 16 18 18 16 14 16 17 19 19 17 13 14 13 11 13 13 15 14 14 17 19 19
24 22 20 19 19 19 17 16 14 12 14 16 13 13 10 12 5 8 8 12 17 15 12 11 14 16 14 12 12 18 13 17 12 14 13 14 14 15 16 16 16 16 21
25 24 23 22 21 19 16 11 14 13 18 20 16 15 10 11 13 11 15 7 9 12 9 10 10 11 12 14 13 13 19 22 15 15 13 14 15 14 16 18 18 19 21
25 21 22 20 20 17 17 14 21 21 17 18 18 16 15 12 9 7 10 13 14 13 11 9 12 12 15 15 18 21 21 19 19 15 15 15 14 13 12 13 13 12 13
19 19 12 13 14 13 17 19 16 15 17 17 14 13 12 9 9 10 12 13 14 18 17 15 16 17 15 18 20 20 20 22 19 16 14 13 14 16 16 15 16 17 15
17 19 16 18 19 22 21 17 13 12 13 13 12 12 13 13 14 12 14 13 12 13 16 19 17 16 16 17 18 19 18 19 16 14 17 16 15 18 20 21 21 20 22
24 24 24 29 25 20 19 15 13 14 14 13 13 13 13 13 15 15 15 16 14 12 14 12 15 16 16 17 19 14 14 13 20 20 19 17 15 17 20 20 18 17 8
27 29 30 30 24 20 19 16 14 13 13 13 14 14 15 14 13 13 14 14 15 17 15 14 18 20 19 19 21 17 16 16 15 22 20 18 16 18 20 19 13 9 8
27 29 28 23 21 20 17 16 15 15 14 13 13 12 12 12 13 12 12 13 15 16 19 21 23 20 18 18 18 18 20 18 19 20 21 20 18 18 17 16 13 14 15
27 27 24 21 20 19 18 16 14 13 12 12 11 10 9 9 10 12 12 14 15 16 19 20 21 20 19 20 21 21 19 21 22 20 21 20 20 17 17 15 13 16 14
25 26 21 20 20 18 17 15 12 12 11 10 9 9 10 11 12 13 14 16 17 16 17 19 19 20 18 20 18 22 24 22 23 22 21 20 16 16 14 15 14 17 14
25 24 20 20 20 18 15 13 13 12 12 12 11 11 11 13 14 16 17 18 19 18 17 19 20 20 21 20 21 23 23 24 22 21 20 19 15 14 14 13 13 16 17
24 20 18 20 19 17 14 13 13 12 11 11 11 12 12 15 17 18 19 18 19 19 19 21 21 19 19 19 20 19 22 21 20 20 20 19 16 14 15 15 15 16 17
20 19 20 19 18 16 15 13 11 10 11 11 11 12 15 17 18 19 18 17 19 19 21 23 21 21 18 17 16 15 16 19 21 21 21 20 18 16 17 15 15 16 17
20 21 20 18 16 15 13 12 11 11 10 10 12 14 17 18 18 18 17 19 19 18 17 20 21 19 20 19 19 19 18 19 20 20 16 18 17 18 18 17 16 16 16
21 20 18 18 17 15 12 10 8 8 8 11 14 14 16 16 18 17 17 17 17 15 13 16 19 20 22 21 20 19 17 16 18 20 20 17 15 16 18 18 17 17 16
19 18 18 16 15 13 10 7 5 7 10 13 14 15 15 16 17 17 16 14 13 14 13 13 13 13 14 14 15 16 17 18 19 19 18 19 17 18 17 19 19 18 16
19 18 17 16 14 12 9 6 5 9 11 12 13 13 15 15 14 12 13 12 12 13 12 11 11 12 12 13 13 14 16 16 17 18 17 18 18 15 13 18 18 18 15
Wind_Direction
171 170 175 172 174 174 176 178 177 176 172 171 171 172 177 180 191 189 193 186 161 134 115 84 71 59 31 28 45 44 40 30 30 31 27 30 37 33 31 33 34 32 31
176 174 175 177 179 179 181 183 185 182 182 183 196 205 213 220 225 232 231 241 234 221 232 273 266 326 341 14 26 12 360 358 346 353 360 359 349 356 9 18 23 25 27
181 179 179 182 183 185 187 192 196 193 192 194 202 217 226 242 246 250 250 237 248 248 249 255 255 269 312 342 351 359 348 334 316 311 338 327 315 308 328 348 4 15 21
185 183 183 184 187 191 194 197 200 198 196 214 224 233 246 252 248 254 257 253 249 250 253 258 261 265 271 335 333 343 347 328 304 305 293 292 293 285 285 301 311 342 11
187 188 188 192 194 196 198 201 201 195 204 220 231 243 250 257 258 254 254 250 252 255 255 259 258 261 259 267 290 318 343 336 315 291 274 274 276 270 263 265 276 291 313
193 193 195 198 199 201 201 199 197 195 205 228 247 257 267 268 266 262 255 250 249 254 257 256 255 253 251 257 267 279 299 321 320 304 290 269 267 263 260 251 249 262 262
198 196 198 200 201 201 200 196 196 202 222 240 260 264 254 257 263 266 261 257 252 253 257 256 250 252 255 256 258 261 270 298 309 301 292 283 268 268 254 256 258 251 260
203 202 200 208 210 206 208 207 210 215 229 238 234 236 262 287 273 287 291 269 257 253 257 258 260 263 267 258 256 255 256 277 299 292 286 287 280 271 261 255 258 257 248
203 201 204 204 203 208 210 211 216 218 227 234 234 224 286 266 289 287 276 264 285 285 278 258 254 261 276 272 258 255 252 268 292 283 285 287 277 272 268 259 256 252 245
199 202 205 207 210 213 216 215 215 216 215 225 239 266 270 267 275 297 296 285 295 269 266 267 268 278 275 272 279 278 273 273 288 289 283 282 283 274 268 260 254 257 248
201 205 207 212 215 210 208 182 172 233 236 246 255 263 273 276 279 274 291 272 292 301 284 286 276 288 282 277 284 293 274 273 270 276 279 286 286 276 272 266 264 258 249
205 213 213 213 221 214 210 246 261 236 248 231 242 257 256 259 274 274 266 279 279 296 300 279 280 288 287 289 293 300 289 281 267 270 274 280 294 287 275 266 261 257 261
199 218 247 248 239 227 240 247 241 224 226 235 244 237 226 251 261 273 270 273 273 288 291 282 274 281 275 278 285 287 289 285 278 270 270 266 291 288 277 270 268 262 271
227 228 240 239 244 236 232 224 208 206 216 219 222 215 228 246 251 260 256 266 277 276 283 287 292 284 278 286 285 285 289 286 280 241 244 273 289 288 279 280 281 277 274
230 230 237 233 232 214 200 203 202 206 209 214 221 239 254 258 271 269 263 260 256 269 278 285 284 290 285 282 282 282 288 272 265 252 253 255 280 290 288 288 295 303 285
209 220 222 222 196 190 195 199 203 214 222 229 236 244 256 263 266 269 272 271 269 258 259 272 274 287 285 281 283 273 271 271 262 263 254 256 278 292 293 286 284 271 220
210 202 193 181 188 191 197 209 215 219 222 229 233 238 250 259 264 271 273 274 275 273 270 271 278 278 279 279 277 276 273 265 261 259 253 251 270 289 296 276 270 241 238
179 178 181 185 191 198 203 205 206 210 217 225 234 245 261 270 275 278 282 280 279 280 281 275 278 277 275 274 269 264 262 263 256 247 251 257 274 299 287 268 263 236 234
182 183 188 193 197 202 202 203 210 221 229 235 243 252 266 273 279 286 281 284 281 281 269 275 277 280 277 277 269 261 259 255 254 250 249 257 270 292 289 268 248 232 230
187 189 196 199 200 201 201 209 224 232 233 236 245 253 262 272 278 279 284 286 288 282 281 275 272 270 271 272 263 262 259 254 249 252 252 258 264 290 279 271 237 229 232
190 197 201 198 197 201 211 219 224 225 236 244 251 261 272 276 278 281 281 284 286 289 289 283 270 266 268 269 268 270 253 248 249 251 254 255 259 273 268 260 244 231 232
200 203 199 200 203 209 213 215 219 232 243 254 266 277 282 284 285 284 283 285 286 298 298 277 266 265 267 265 263 265 261 253 249 257 256 255 257 262 263 255 240 235 234
201 198 199 203 208 208 206 211 220 234 248 266 280 285 285 284 279 276 280 284 288 303 308 275 268 264 264 263 263 261 259 259 261 259 260 253 252 259 254 248 240 239 240
197 200 202 201 201 202 204 215 229 255 277 284 283 290 286 284 279 278 280 277 279 282 293 284 278 267 267 265 265 263 258 254 255 251 249 245 250 255 250 246 244 245 244
202 202 200 200 202 204 205 215 242 280 296 299 304 295 287 286 287 289 285 287 274 277 281 280 279 275 270 267 261 257 252 249 249 247 244 244 248 252 250 242 241 245 242
201 197 197 198 202 203 202 208 269 304 322 324 319 308 301 295 294 289 286 288 272 272 280 280 278 278 272 263 257 251 247 246 247 251 243 240 247 248 247 243 237 234 230
Height
1555 1558 1561 1564 1567 1569 1571 1574 1576 1577 1578 1579 1580 1581 1582 1583 1583 1583 1584 1583 1583 1583 1583 1583 1582 1582 1582 1581 1580 1580 1579 1578 1578 1577 1577 1576 1575 1575 1574 1572 1571 1570 1568
1555 1557 1560 1563 1566 1568 1571 1573 1575 1576 1578 1579 1580 1580 1581 1582 1583 1583 1583 1583 1583 1582 1583 1583 1583 1582 1582 1582 1581 1580 1580 1579 1579 1578 1577 1577 1576 1575 1575 1574 1573 1572 1570
1553 1556 1559 1562 1565 1567 1570 1573 1575 1576 1578 1578 1579 1580 1580 1581 1581 1581 1582 1582 1582 1582 1582 1582 1582 1582 1581 1580 1580 1579 1579 1578 1577 1576 1577 1576 1576 1576 1575 1575 1574 1572 1572
1553 1556 1559 1561 1564 1567 1569 1572 1574 1576 1577 1578 1578 1578 1579 1579 1580 1580 1581 1581 1581 1581 1580 1581 1581 1581 1581 1580 1579 1578 1578 1577 1576 1575 1575 1575 1574 1575 1574 1574 1573 1572 1571
1552 1556 1559 1561 1563 1566 1568 1570 1573 1575 1576 1578 1577 1577 1577 1577 1577 1577 1578 1578 1579 1579 1579 1579 1579 1579 1579 1578 1578 1577 1577 1576 1575 1574 1573 1573 1572 1573 1573 1573 1574 1573 1571
1551 1554 1557 1560 1563 1565 1567 1569 1572 1573 1575 1575 1576 1576 1575 1575 1575 1575 1575 1575 1575 1576 1577 1577 1577 1576 1576 1576 1577 1576 1576 1575 1574 1572 1571 1570 1570 1570 1570 1570 1570 1571 1570
1550 1552 1556 1559 1562 1565 1566 1568 1570 1571 1574 1573 1575 1574 1573 1572 1572 1572 1573 1573 1573 1573 1574 1575 1575 1574 1573 1574 1573 1573 1573 1573 1572 1571 1570 1569 1568 1566 1568 1568 1569 1568 1571
1547 1551 1553 1557 1560 1563 1565 1567 1569 1569 1571 1571 1571 1571 1572 1572 1570 1570 1570 1571 1571 1570 1570 1571 1570 1571 1570 1570 1569 1570 1569 1569 1569 1568 1566 1565 1566 1565 1563 1565 1566 1567 1567
1546 1549 1552 1555 1558 1561 1562 1564 1566 1567 1568 1568 1568 1569 1570 1569 1568 1567 1567 1567 1569 1569 1569 1567 1566 1567 1567 1567 1566 1566 1565 1565 1565 1565 1565 1564 1562 1562 1563 1561 1562 1563 1564
1543 1547 1550 1552 1554 1558 1560 1561 1562 1563 1564 1563 1564 1566 1565 1566 1566 1566 1564 1564 1565 1565 1566 1565 1564 1564 1564 1563 1563 1563 1561 1563 1562 1563 1561 1562 1559 1559 1559 1558 1558 1559 1560
1539 1543 1546 1549 1552 1555 1559 1559 1558 1558 1559 1560 1561 1562 1562 1563 1563 1563 1561 1561 1562 1562 1562 1562 1562 1562 1561 1561 1561 1560 1560 1559 1559 1560 1559 1558 1556 1555 1555 1555 1554 1554 1555
1535 1538 1543 1546 1550 1552 1553 1556 1556 1556 1556 1556 1557 1558 1559 1560 1560 1559 1559 1559 1559 1559 1558 1558 1559 1558 1560 1559 1557 1557 1556 1555 1554 1555 1556 1553 1552 1551 1550 1551 1550 1551 1551
1531 1535 1540 1543 1547 1550 1550 1552 1554 1552 1554 1554 1555 1555 1555 1556 1557 1557 1557 1558 1555 1554 1554 1554 1554 1553 1553 1554 1552 1551 1551 1551 1551 1551 1551 1550 1549 1548 1548 1548 1548 1548 1548
1528 1531 1535 1541 1543 1545 1549 1551 1551 1550 1552 1552 1553 1553 1554 1553 1553 1553 1554 1555 1553 1552 1550 1549 1548 1547 1548 1547 1547 1546 1546 1546 1547 1548 1547 1548 1547 1546 1545 1544 1543 1542 1541
1522 1528 1532 1537 1541 1542 1546 1547 1547 1549 1550 1550 1550 1550 1550 1550 1550 1550 1549 1549 1548 1548 1547 1547 1545 1544 1544 1544 1544 1541 1540 1541 1542 1543 1544 1543 1543 1543 1541 1540 1539 1538 1535
1517 1523 1529 1534 1536 1539 1542 1544 1545 1546 1547 1547 1547 1547 1548 1547 1547 1546 1544 1544 1543 1544 1542 1541 1540 1539 1539 1539 1538 1538 1537 1537 1536 1538 1538 1538 1539 1539 1538 1537 1537 1539 1536
1515 1518 1526 1530 1533 1537 1540 1542 1544 1544 1544 1545 1544 1544 1544 1543 1542 1541 1540 1538 1539 1539 1536 1536 1535 1536 1534 1534 1534 1533 1534 1533 1533 1534 1534 1535 1535 1535 1534 1534 1535 1538 1537
1515 1519 1524 1527 1532 1536 1538 1539 1540 1540 1541 1541 1541 1541 1540 1540 1539 1538 1536 1536 1534 1533 1531 1532 1532 1530 1530 1529 1528 1528 1529 1530 1529 1530 1531 1531 1531 1530 1531 1530 1531 1534 1535
1514 1519 1522 1525 1529 1533 1534 1535 1536 1536 1536 1536 1537 1537 1536 1538 1536 1534 1533 1533 1530 1527 1528 1525 1525 1526 1526 1525 1524 1523 1523 1524 1525 1526 1526 1527 1527 1528 1527 1528 1529 1531 1533
1513 1516 1520 1523 1526 1528 1529 1531 1532 1533 1533 1533 1533 1533 1532 1533 1532 1532 1530 1528 1528 1525 1520 1520 1520 1520 1521 1520 1519 1519 1519 1520 1520 1522 1522 1523 1524 1524 1525 1525 1526 1529 1530
1511 1514 1517 1519 1521 1524 1525 1527 1529 1530 1531 1531 1530 1529 1527 1528 1528 1527 1525 1522 1523 1519 1515 1514 1517 1515 1515 1515 1515 1515 1514 1515 1516 1518 1518 1519 1520 1520 1522 1521 1523 1525 1527
1508 1511 1513 1516 1517 1519 1521 1523 1524 1525 1528 1528 1527 1524 1524 1523 1522 1522 1520 1516 1517 1513 1508 1510 1513 1512 1510 1510 1510 1510 1511 1511 1512 1514 1514 1515 1516 1517 1518 1518 1519 1522 1523
1506 1508 1510 1512 1516 1518 1520 1521 1521 1522 1521 1521 1521 1519 1519 1518 1518 1516 1513 1512 1512 1507 1505 1509 1507 1506 1506 1506 1505 1506 1506 1507 1508 1510 1511 1511 1512 1513 1514 1515 1516 1518 1519
1503 1505 1507 1509 1513 1516 1517 1518 1517 1518 1516 1516 1517 1512 1513 1513 1514 1510 1507 1505 1506 1505 1502 1504 1502 1500 1500 1500 1500 1501 1502 1503 1504 1505 1506 1507 1508 1509 1510 1511 1513 1514 1516
1499 1501 1504 1505 1508 1510 1512 1513 1513 1514 1512 1511 1506 1508 1508 1507 1508 1505 1501 1501 1502 1502 1499 1499 1497 1496 1495 1495 1495 1496 1497 1498 1499 1500 1501 1502 1504 1505 1506 1507 1509 1510 1512
1497 1498 1501 1503 1506 1507 1508 1509 1508 1509 1503 1502 1506 1505 1504 1506 1501 1496 1502 1499 1498 1499 1495 1494 1493 1492 1492 1492 1491 1492 1494 1494 1495 1497 1498 1500 1501 1503 1503 1503 1504 1506 1509